{"data":{"norad_id":59965,"epoch":"2026-09-22T21:27:49.489920Z","epoch_age_seconds":71630,"freshness":"FRESH","line1":"1 59965U 24108A   26265.89432280  .00003512  00000+0  14595-3 0  9993","line2":"2 59965  97.5426  61.1969 0009605 256.7956 103.2210 15.24452426127476","mean_motion":15.24452426,"eccentricity":0.0009605,"inclination_deg":97.5426,"raan_deg":61.1969,"arg_perigee_deg":256.7956,"mean_anomaly_deg":103.221,"bstar":0.00014595,"rev_number":12747,"period_min":94.460146833077,"perigee_km":485.83100551158,"apogee_km":499.02936507452,"semimajor_km":6870.567185293,"source":"CELESTRAK","updated_at":"2026-09-23T09:00:20.361933Z"}}